Retour au catalogue

STARLINK-11249

ActifCommunicationsVLEO
NORAD 60728·PAYLOAD·🇺🇸 United States

Lancé Aug 28, 2024 depuis Cape Canaveral Space Force Station

Loading…

Prochains Passages (prochaines 24 heures)

TLE

FraisSource: CelesTrak SupGP

Époque: Sep 14, 2026, 22:42 UTC

1 60728C 24152J   26257.94631944  .00074269  00000+0  61155-3 0  2574
2 60728  53.1575 263.1488 0001190  97.6191 198.0026 15.69681417    12

Suivez STARLINK-11249 en temps réel avec AllMySat

Download on the App Store